RH
61 65 69 70 74 78 81 84 84 82 83 82 75 69 68 70 71 69 71 76 78 77 77 81 84 82 82 83 81 82 84 85 86 88 92 94 89 82 76 72 69 62 53 48 45 40 40 39 37 37 37 35 34 32 30 29 29 30 29 29 34 37 33 34 36 34 32 30 28 26 23 22 21 20 18 19 20 19 18 20 22 24 31 38 35 27 30
63 68 71 73 78 85 86 85 83 82 81 77 71 66 62 62 64 63 65 70 72 71 74 79 80 81 83 82 81 82 83 85 89 93 96 94 87 81 75 70 68 61 53 49 46 42 41 40 37 37 38 36 36 34 32 31 29 28 28 30 34 35 33 35 38 38 36 35 33 30 26 24 23 22 20 19 20 22 22 22 22 23 28 32 29 25 31
65 68 72 76 82 88 88 82 80 81 79 74 67 61 59 58 59 60 63 67 69 72 76 80 82 83 85 84 85 86 86 88 93 97 98 92 85 80 74 70 67 61 53 50 48 44 42 41 38 38 39 40 39 36 34 33 32 29 29 30 33 35 35 37 38 38 38 38 35 33 29 27 26 24 22 21 22 23 23 22 21 21 27 31 27 24 33
65 67 70 75 84 92 88 78 78 81 78 73 66 61 61 61 59 61 65 68 72 78 82 85 87 88 89 89 90 92 93 95 97 98 97 91 84 78 74 71 68 62 56 52 49 46 45 43 40 39 40 43 43 39 35 34 34 33 32 31 35 38 38 38 40 39 36 33 33 32 29 27 26 26 24 22 23 23 23 22 21 20 25 30 27 27 37
65 67 69 74 82 91 88 76 76 81 81 77 73 70 71 71 72 77 81 81 83 85 88 89 91 92 94 94 95 96 98 97 97 96 94 89 84 78 74 71 68 65 62 56 50 49 48 44 42 43 44 46 46 42 38 36 36 38 36 32 35 38 37 39 45 45 40 37 37 36 33 29 25 25 25 24 24 26 25 23 23 23 24 26 28 33 37
64 67 69 71 76 85 84 76 73 76 80 81 81 82 84 84 86 91 93 93 91 89 90 93 96 97 97 97 98 98 96 96 96 94 91 87 82 78 77 73 68 66 63 57 53 52 51 47 46 47 48 48 46 41 39 39 38 40 38 34 37 38 36 41 48 49 49 48 45 43 40 34 29 26 26 26 26 27 26 25 26 25 22 21 27 35 34
64 66 66 66 70 75 77 75 73 73 78 82 85 88 91 93 96 97 96 95 95 92 93 96 98 99 99 98 99 99 97 97 96 94 92 89 82 78 82 80 74 69 63 59 57 54 51 50 51 51 51 51 47 42 40 40 40 42 40 37 40 39 38 45 50 52 55 55 52 51 45 39 36 34 31 28 29 28 26 28 31 29 27 27 31 37 34
62 63 62 62 66 69 71 74 75 74 76 82 85 89 93 95 97 97 95 96 97 98 98 98 98 98 97 97 98 99 99 98 97 95 94 93 87 83 87 86 78 73 68 62 60 56 53 53 53 53 53 51 48 46 43 41 41 43 41 39 40 38 41 49 50 50 55 56 55 55 49 43 42 43 40 34 32 32 31 33 34 33 35 38 37 38 37
61 60 59 60 65 67 69 74 77 75 75 80 84 87 91 94 96 98 98 97 98 99 99 97 96 95 95 96 97 97 98 97 98 95 90 91 92 91 92 88 80 79 76 68 62 60 57 55 53 53 52 49 49 49 45 42 41 42 42 41 39 39 45 51 47 45 53 59 58 56 51 46 44 46 46 40 35 36 37 37 35 33 37 41 37 34 35
61 59 58 60 64 67 69 73 79 78 76 79 83 86 90 93 95 98 99 98 96 97 96 94 93 94 95 96 95 93 94 94 94 91 85 85 89 91 92 90 87 88 86 74 64 62 59 55 54 55 53 52 53 52 48 44 41 41 43 43 42 42 46 51 46 43 54 64 64 58 52 46 44 46 49 46 44 43 41 41 40 37 37 36 31 29 33
60 60 59 60 64 67 68 71 78 81 82 84 86 86 87 90 93 95 97 97 95 95 97 95 94 95 94 93 92 90 89 89 89 88 85 84 85 86 88 89 90 92 89 77 65 63 62 59 56 54 53 52 52 52 51 48 44 43 42 42 44 45 46 51 48 45 55 65 64 58 52 47 47 51 52 51 51 48 43 43 43 41 39 37 35 36 39
59 60 60 62 65 67 66 69 76 83 85 85 84 82 81 84 90 93 95 95 94 95 98 96 95 96 94 91 90 88 86 86 86 86 85 84 83 82 83 85 87 88 86 81 72 66 64 61 57 55 54 54 53 52 51 49 47 47 43 41 44 45 45 51 51 48 56 65 62 57 54 52 54 56 54 52 52 52 50 48 48 46 45 46 45 44 43
59 60 61 64 66 66 66 69 74 78 80 78 78 77 77 81 87 89 89 89 88 89 92 92 90 92 93 91 89 87 86 85 84 83 82 82 82 81 80 82 85 83 83 83 78 70 67 63 57 56 56 57 58 57 54 52 50 49 45 42 44 46 46 51 53 53 58 64 63 60 58 59 62 63 60 56 55 55 51 47 47 49 49 49 47 45 43
58 60 62 64 65 65 65 67 71 74 74 74 74 74 75 77 82 86 86 86 84 83 85 86 84 84 86 87 87 87 84 83 83 82 79 78 79 78 78 80 80 79 79 81 77 70 67 63 59 58 59 59 60 60 59 57 53 50 49 46 45 46 49 51 53 57 61 63 64 62 61 60 62 65 66 62 58 57 51 43 45 51 51 49 48 47 45
58 59 61 64 64 65 64 63 67 71 71 71 71 72 74 77 81 85 87 87 86 84 83 83 84 84 84 82 82 83 82 80 80 80 77 76 75 73 74 77 77 75 76 80 78 73 68 64 60 60 60 59 61 63 63 61 56 52 53 51 47 46 48 50 53 58 62 62 64 67 66 62 59 63 69 67 62 61 57 49 49 53 54 52 49 49 48
56 58 61 63 63 64 62 62 65 67 66 65 66 69 77 84 86 88 88 87 88 85 82 82 85 87 87 84 81 83 82 79 79 81 78 75 73 71 70 73 74 73 74 77 77 73 69 67 65 63 62 62 63 64 66 66 62 56 53 51 49 49 49 50 53 59 62 61 63 67 67 64 62 64 69 70 68 67 62 53 50 54 57 56 52 51 51
56 57 59 60 60 60 61 62 64 63 61 61 62 69 81 89 92 92 89 88 88 85 81 83 87 87 87 84 81 82 83 80 80 82 80 78 77 73 68 69 72 72 73 77 78 74 71 71 69 67 67 68 66 65 66 68 67 61 55 52 52 51 51 51 53 58 61 61 62 63 62 64 68 68 69 71 71 68 62 53 50 55 60 59 56 55 55
57 55 54 54 54 56 59 62 62 60 58 58 63 73 84 90 94 97 94 91 91 89 85 87 91 91 90 88 85 84 83 81 79 81 80 79 78 76 72 72 73 72 74 80 80 76 74 74 72 69 70 71 67 66 69 70 69 67 62 58 56 54 54 53 53 55 58 59 60 61 59 63 70 70 70 72 70 64 58 52 52 58 63 63 60 59 58
56 53 49 48 51 56 59 60 60 59 57 57 64 76 86 90 95 98 97 95 95 92 86 87 91 93 93 94 92 87 84 81 80 81 81 77 75 75 74 74 75 75 77 80 81 77 76 77 76 73 72 71 68 69 72 72 71 71 67 61 57 56 56 55 54 55 57 56 57 59 57 60 68 71 72 72 67 59 55 54 57 61 64 64 62 60 59
56 52 48 46 49 56 60 58 58 59 57 55 61 72 83 88 92 93 93 94 96 92 84 84 89 91 91 94 93 90 87 84 82 81 81 77 73 72 72 73 74 75 75 76 78 78 75 76 78 75 73 75 73 71 74 76 75 73 69 65 63 60 57 56 56 57 58 58 60 59 56 58 65 70 71 70 64 58 57 59 61 62 63 63 63 61 59
58 54 51 48 48 54 58 57 56 58 56 56 58 67 78 84 87 89 89 91 95 94 86 83 87 89 90 92 90 88 87 84 82 81 79 76 74 71 71 73 74 75 74 73 76 77 74 74 77 76 76 79 77 72 72 77 77 76 74 72 70 66 61 59 59 59 58 57 58 57 58 64 67 67 67 67 63 60 60 61 62 61 62 63 62 62 62
59 57 56 53 50 51 54 54 54 55 55 55 58 66 75 79 81 85 87 87 90 90 83 81 84 86 87 89 88 86 84 82 80 80 79 77 74 71 71 74 76 75 74 72 73 76 75 75 76 75 77 79 78 74 74 75 76 77 77 74 71 71 69 66 63 64 63 61 61 63 67 71 70 67 67 66 63 61 60 59 59 59 60 61 61 61 62
64 60 59 58 54 51 51 52 53 53 53 54 58 66 73 75 76 82 85 84 85 85 80 78 81 81 82 84 84 83 83 82 79 77 77 77 76 71 72 74 73 72 72 72 72 73 74 74 74 75 77 79 77 75 74 72 74 78 78 75 73 75 78 74 70 69 70 70 72 73 73 71 68 66 66 64 63 62 60 58 59 59 58 59 60 59 60
70 65 62 62 60 55 53 53 52 51 53 56 58 64 70 73 77 84 85 82 82 82 79 77 77 77 78 80 81 81 81 81 80 76 74 74 73 70 69 70 69 68 69 71 72 72 72 74 75 74 75 76 74 73 72 69 71 74 74 72 73 75 78 79 76 72 68 69 73 75 72 70 68 65 64 62 60 60 59 58 59 60 59 58 58 58 59
73 69 67 66 65 63 60 57 52 51 55 59 60 63 68 72 79 86 86 82 79 80 81 80 77 76 78 78 79 80 79 77 76 75 73 73 72 70 69 68 68 68 68 68 70 71 71 73 75 74 74 75 73 73 72 71 70 70 70 71 74 74 74 76 78 75 71 71 75 75 72 71 69 65 64 63 60 59 58 57 57 58 58 57 56 56 58
74 71 70 68 68 67 66 64 58 54 56 60 61 63 67 75 84 87 83 78 78 79 81 80 74 72 75 76 74 77 78 76 75 75 74 74 74 73 70 67 66 68 69 68 67 67 69 71 73 73 74 75 74 74 75 73 71 70 71 72 74 74 73 72 74 74 72 72 75 75 72 71 70 69 67 66 63 61 59 57 57 58 57 56 56 55 56
75 75 73 70 69 69 69 68 66 62 62 64 65 65 70 80 87 85 78 75 74 74 75 76 72 67 68 68 67 71 74 73 75 76 73 74 77 76 69 66 66 67 68 68 67 65 65 67 70 71 73 75 75 75 75 74 71 71 73 73 72 72 72 72 70 69 68 67 70 72 70 69 70 71 70 68 65 63 60 58 59 59 58 58 57 55 55
75 76 75 71 70 70 70 70 70 68 68 69 70 71 77 85 87 82 75 72 72 71 72 74 71 66 63 61 61 65 69 69 71 75 74 74 78 78 72 68 68 67 67 69 71 71 69 69 71 73 73 73 74 75 75 74 72 72 74 74 72 71 71 70 67 66 66 66 67 68 67 67 69 70 69 67 65 63 62 61 61 62 62 61 59 58 58
72 74 74 71 70 70 71 71 70 68 68 71 74 77 83 88 88 80 73 71 71 71 72 71 67 63 61 59 55 57 61 63 64 67 71 73 76 77 76 74 71 69 69 70 73 76 75 73 73 75 75 75 75 76 77 77 76 75 75 74 73 73 72 71 68 67 67 68 68 68 67 68 69 68 67 66 64 63 63 63 63 64 64 63 62 61 60
70 72 72 71 71 71 70 69 68 65 65 69 76 80 82 86 86 78 71 70 69 68 70 71 67 61 58 55 52 51 54 55 55 57 64 70 73 73 74 74 73 73 73 72 74 78 79 75 73 75 77 77 76 78 81 82 80 78 76 77 77 76 75 73 71 69 70 71 72 72 72 71 70 70 69 67 65 63 63 63 64 65 65 64 63 62 61
71 72 72 72 73 71 67 66 65 63 61 66 75 79 81 83 82 74 69 69 67 64 67 69 66 60 55 51 49 50 52 53 53 52 54 59 65 68 70 71 71 72 73 74 76 80 80 78 78 80 80 79 80 82 85 84 81 79 78 79 81 80 77 75 73 73 76 78 78 77 78 77 74 71 70 67 64 64 64 63 64 67 68 67 66 65 64
72 73 71 71 73 69 64 63 63 60 60 66 73 76 79 81 77 70 66 66 63 61 63 63 60 57 53 46 41 41 44 46 49 51 50 50 54 57 59 60 60 60 64 70 76 79 80 79 79 80 80 80 82 85 86 83 81 80 80 81 82 80 78 77 78 80 82 83 79 76 77 77 75 72 71 69 67 66 65 65 66 68 69 70 71 70 68
72 73 71 70 72 68 61 60 61 59 60 68 73 73 75 78 75 68 65 63 58 57 59 59 56 53 48 39 31 30 32 34 37 40 42 46 49 51 51 51 51 50 52 59 67 73 77 78 76 75 76 77 79 81 83 82 81 81 82 83 84 84 83 83 84 84 83 80 75 71 71 73 74 74 75 74 73 70 68 67 68 68 70 73 75 76 75
71 74 72 69 69 68 62 59 59 59 62 70 74 72 72 75 74 70 65 60 56 55 55 55 55 50 42 34 29 27 26 27 28 28 28 32 38 42 44 45 47 48 48 51 56 61 66 69 69 67 67 70 72 74 76 77 79 82 83 84 84 85 87 88 87 84 81 76 72 70 69 70 73 76 78 77 75 71 69 68 68 68 71 76 80 83 85
69 73 73 69 67 68 66 61 60 61 66 71 74 72 70 72 73 72 67 61 57 54 51 50 49 46 39 35 34 30 26 24 25 25 23 22 24 27 32 36 40 43 45 48 51 53 56 59 58 56 55 57 59 61 65 69 73 78 81 83 82 81 81 83 83 80 78 76 73 70 69 68 71 75 78 77 74 71 68 67 68 69 74 80 84 87 91
67 72 74 72 70 71 70 67 66 68 71 72 73 72 69 68 71 70 65 61 59 56 53 49 46 43 39 37 36 33 29 26 25 23 22 20 19 19 24 29 34 37 40 42 44 47 51 52 51 49 49 47 46 48 53 57 61 66 71 75 76 75 74 74 73 72 71 72 71 69 68 67 68 70 72 72 71 69 68 70 72 75 79 84 87 88 90
65 71 73 75 75 74 73 71 72 73 74 73 73 70 66 65 68 68 64 63 62 59 57 53 48 43 41 39 36 34 31 28 25 23 21 20 19 19 21 26 30 32 34 36 38 41 44 46 47 45 44 43 44 46 50 50 51 53 57 59 62 64 66 67 67 66 66 67 67 66 65 65 65 66 66 66 66 66 70 75 78 80 82 85 88 91 92
61 69 72 76 79 78 76 76 76 76 75 74 72 70 65 63 65 66 64 64 64 62 60 56 49 43 40 39 37 34 30 26 24 22 21 20 19 18 20 24 27 29 30 32 35 36 36 40 44 42 40 40 43 45 46 47 47 47 47 48 49 51 52 55 57 58 59 61 62 62 62 63 63 64 64 63 63 65 68 73 78 81 83 85 88 92 94
59 67 71 76 79 78 77 78 77 75 74 73 72 71 68 62 60 61 62 64 66 66 62 56 49 43 40 38 37 33 27 24 24 23 21 20 19 17 19 21 23 26 27 29 30 29 27 32 36 34 31 35 40 40 40 42 43 43 43 42 42 43 43 45 46 47 48 49 50 51 53 56 59 60 59 59 61 63 63 65 70 75 79 83 87 91 94
58 65 72 78 81 79 76 75 74 72 73 73 73 73 69 61 58 59 60 61 63 63 59 54 50 44 39 37 38 33 26 23 23 22 21 21 19 17 17 18 19 23 24 23 24 24 24 27 31 28 25 29 33 34 34 36 37 37 37 37 37 39 40 40 40 40 40 41 42 41 41 44 49 54 55 55 57 60 61 62 63 65 69 75 82 88 92
56 63 72 79 82 79 74 70 71 73 74 74 74 73 67 60 58 58 58 58 59 57 53 50 48 43 38 37 37 33 26 24 23 20 20 21 19 18 18 17 17 20 20 19 21 23 23 23 27 27 23 23 25 27 28 29 29 30 31 32 34 37 38 37 38 37 36 36 38 37 36 37 41 47 50 51 52 55 58 60 62 62 63 67 73 79 85
56 63 72 78 81 80 73 68 68 73 74 74 73 71 65 60 57 56 54 54 54 52 48 45 44 41 38 35 33 28 24 23 22 21 20 20 19 20 21 20 19 18 18 17 19 21 20 23 25 23 19 20 22 25 26 26 24 24 26 27 31 35 37 37 37 36 35 34 34 34 33 33 35 40 45 47 49 51 53 56 59 61 64 68 70 72 76
54 62 70 77 81 82 76 69 67 71 74 75 73 69 63 58 55 54 53 50 48 47 46 44 42 40 37 35 32 28 24 22 21 21 21 20 20 22 23 22 20 19 18 18 19 19 19 23 25 22 19 20 23 24 25 25 24 23 24 26 29 34 36 36 36 36 35 34 34 34 33 31 33 37 40 42 43 46 49 51 54 57 63 68 69 69 69
50 60 68 77 82 83 79 72 68 69 73 75 73 69 62 56 52 51 52 50 48 46 45 43 42 40 37 36 34 30 26 23 22 21 22 22 22 23 23 21 20 19 19 19 21 22 22 23 24 22 21 22 23 24 25 25 24 24 25 27 30 34 35 34 35 35 36 36 36 36 35 33 34 37 39 39 39 41 44 46 48 51 56 63 69 70 70
50 59 66 73 80 82 79 75 72 70 71 73 73 69 63 55 50 50 52 51 49 47 44 42 41 39 37 36 34 31 28 26 23 22 23 24 23 22 22 21 21 23 23 23 23 23 22 22 23 23 21 20 21 23 24 25 24 24 27 30 34 36 35 34 35 36 37 38 38 38 37 36 37 38 39 39 41 41 42 42 44 46 49 56 64 69 71
50 57 62 68 75 80 79 77 76 73 71 71 74 73 67 59 53 52 51 50 48 46 43 40 39 38 36 34 33 32 30 27 25 25 26 25 23 23 22 21 22 24 26 26 27 26 23 23 24 23 21 20 21 23 24 24 24 25 28 33 38 39 37 37 38 38 38 39 40 40 40 40 41 42 42 43 45 46 45 44 44 45 48 52 57 63 68
49 53 57 62 71 78 80 79 78 77 73 72 74 75 72 66 59 54 51 48 46 43 40 37 37 37 36 34 32 31 31 29 27 27 27 25 24 25 24 22 23 26 27 26 27 28 27 25 24 23 22 22 22 23 24 24 24 27 30 34 38 41 41 41 40 40 39 40 42 43 43 44 44 45 45 46 49 51 51 50 49 49 49 50 54 57 61
47 50 54 58 65 74 79 80 80 80 78 75 75 74 73 71 68 62 55 49 45 42 40 38 37 36 36 35 33 33 32 30 28 28 27 25 25 26 24 22 24 27 28 26 26 27 26 25 24 25 25 24 23 23 23 23 25 30 34 36 39 43 44 42 40 40 41 43 45 46 46 47 48 47 47 49 52 54 55 55 56 55 53 54 55 56 58
45 46 51 56 62 69 75 79 81 82 80 78 75 73 72 73 73 70 64 57 51 46 44 42 39 38 38 37 35 34 33 31 29 30 30 28 27 26 24 23 23 25 26 26 26 25 25 26 27 27 27 25 23 23 23 22 26 32 35 36 40 44 43 41 40 41 41 43 46 48 49 50 52 52 51 53 56 56 55 54 55 55 55 55 55 55 56
46 44 46 51 56 62 67 73 77 81 82 81 78 76 74 74 74 73 69 65 59 53 48 44 42 40 38 38 37 36 35 33 32 31 30 30 29 27 25 24 25 25 24 24 24 24 25 27 29 29 27 26 24 24 23 23 26 32 34 36 40 43 42 39 40 43 44 45 48 51 53 56 59 60 59 59 59 58 56 55 54 54 55 56 55 54 54
50 46 43 45 50 55 62 67 71 76 81 83 81 78 76 75 73 73 72 69 65 59 54 50 47 43 38 37 37 37 35 34 34 33 31 30 30 28 26 25 27 26 24 21 21 23 26 29 30 29 27 26 25 24 24 23 25 30 33 35 39 42 42 39 39 42 44 47 51 53 55 58 60 62 63 63 62 63 63 64 62 61 61 61 61 60 58
57 52 45 43 43 47 53 60 64 68 73 76 77 77 77 75 72 71 71 70 70 68 64 57 51 44 40 38 38 36 35 35 36 36 34 34 34 33 31 29 27 24 21 20 21 24 28 30 30 29 29 28 26 25 26 25 24 28 32 34 36 39 40 39 38 39 42 46 50 54 56 58 60 61 63 64 66 67 69 69 69 68 67 67 67 67 65